FW4251 Weather Reports


Display with metric or nautical units.
time (UTC)temp
F
wind
direction
speed
MPH
gust
MPH
rain 1hr
in
rain 24hr
in
rain mn
in
humidity
%
barometer
mb
20260509021502 46 360 0.0 0.0 0.00 0.00 0.00 63 1013.1
20260509021001 46 360 0.0 0.0 0.00 0.00 0.00 63 1013.1
20260509020503 47 360 0.0 0.0 0.00 0.00 0.00 62 1013.0
20260509015559 48 360 0.0 1.0 0.00 0.00 0.00 59 1012.8
20260509015059 48 360 0.0 1.0 0.00 0.00 0.00 58 1012.8
20260509014558 48 360 0.0 0.0 0.00 0.00 0.00 57 1012.6
20260509014057 48 360 0.0 1.0 0.00 0.00 0.00 57 1012.6
20260509013557 48 360 0.0 1.0 0.00 0.00 0.00 57 1012.6
20260509013104 49 360 0.0 0.0 0.00 0.00 0.00 55 1012.6
20260509012557 49 360 0.0 0.0 0.00 0.00 0.00 56 1012.6
20260509012058 49 360 0.0 0.0 0.00 0.00 0.00 55 1012.5
20260509011559 48 360 0.0 0.0 0.00 0.00 0.00 54 1012.5
20260509011054 49 360 0.0 0.0 0.00 0.00 0.00 54 1012.4
20260509010554 49 360 0.0 0.0 0.00 0.00 0.00 54 1012.3
20260509010055 49 360 0.0 0.0 0.00 0.00 0.00 53 1012.1
20260509005556 50 360 0.0 0.0 0.00 0.00 0.00 52 1012.0
20260509005054 50 360 0.0 0.0 0.00 0.00 0.00 52 1011.8
20260509004555 50 360 0.0 0.0 0.00 0.00 0.00 52 1011.6
20260509004052 51 360 0.0 0.0 0.00 0.00 0.00 51 1011.5
20260509003553 52 355 0.0 1.0 0.00 0.00 0.00 49 1011.4
20260509003052 52 355 0.0 1.0 0.00 0.00 0.00 48 1011.4
20260509002556 52 355 0.0 1.0 0.00 0.00 0.00 47 1011.5
20260509002053 53 360 0.0 0.0 0.00 0.00 0.00 46 1011.4
20260509001552 54 355 0.0 1.0 0.00 0.00 0.00 45 1011.4
20260509001051 54 355 0.0 2.0 0.00 0.00 0.00 48 1011.4
20260509000555 54 355 0.0 3.0 0.00 0.00 0.00 49 1011.5
20260509000051 54 355 1.0 4.0 0.00 0.00 0.00 45 1011.5
20260508235551 54 355 0.0 4.0 0.00 0.00 0.00 44 1011.5
20260508235054 55 355 0.0 2.0 0.00 0.00 0.00 47 1011.4
20260508234553 55 355 0.0 2.0 0.00 0.00 0.00 45 1011.3
20260508234053 55 355 0.0 3.0 0.00 0.00 0.00 43 1011.3
20260508233550 55 360 0.0 2.0 0.00 0.00 0.00 43 1011.2
20260508233054 56 355 0.0 4.0 0.00 0.00 0.00 40 1011.2
20260508232550 57 355 0.0 4.0 0.00 0.00 0.00 41 1011.1
20260508232050 57 355 1.0 4.0 0.00 0.00 0.00 40 1011.0
20260508231550 57 355 2.0 5.0 0.00 0.00 0.00 40 1011.1
20260508231050 57 336 0.0 5.0 0.00 0.00 0.00 39 1011.1
20260508230549 58 331 2.0 5.0 0.00 0.00 0.00 37 1011.1
20260508230050 58 355 2.0 5.0 0.00 0.00 0.00 38 1011.0
20260508225549 58 336 1.0 4.0 0.00 0.00 0.00 39 1011.0
20260508225048 59 336 2.0 5.0 0.00 0.00 0.00 38 1010.9
20260508224551 59 326 1.0 5.0 0.00 0.00 0.00 40 1010.9
20260508224047 59 319 2.0 6.0 0.00 0.00 0.00 37 1010.8
20260508223551 59 304 4.0 6.0 0.00 0.00 0.00 37 1010.8
20260508223047 59 273 3.0 6.0 0.00 0.00 0.00 37 1010.8
20260508222545 59 355 1.0 7.0 0.00 0.00 0.00 39 1010.8
20260508222045 59 347 4.0 8.0 0.00 0.00 0.00 37 1010.9
20260508221544 59 342 3.0 9.0 0.00 0.00 0.00 38 1010.8
20260508221044 59 355 3.0 9.0 0.00 0.00 0.00 37 1010.8
20260508220643 60 28 3.0 6.0 0.00 0.00 0.00 37 1010.9
20260508220043 60 344 2.0 8.0 0.00 0.00 0.00 38 1010.9
20260508215542 60 337 2.0 10.0 0.00 0.00 0.00 38 1010.8
20260508215042 60 322 1.0 5.0 0.00 0.00 0.00 38 1010.9
20260508214541 60 249 1.0 6.0 0.00 0.00 0.00 37 1010.7
20260508214040 59 340 3.0 9.0 0.00 0.00 0.00 39 1010.9
20260508213539 59 355 3.0 9.0 0.00 0.00 0.00 40 1010.8
20260508213043 59 346 4.0 12.0 0.00 0.00 0.00 41 1010.9
20260508212539 59 315 6.0 11.0 0.00 0.00 0.00 40 1011.0
20260508212039 59 5 4.0 11.0 0.00 0.00 0.00 41 1010.8
20260508211540 59 343 5.0 11.0 0.00 0.00 0.00 42 1011.0
20260508211041 59 355 5.0 11.0 0.00 0.00 0.00 40 1011.0
20260508210538 59 340 5.0 13.0 0.00 0.00 0.00 41 1011.0
20260508210038 59 360 4.0 14.0 0.00 0.00 0.00 43 1011.0
20260508205538 59 309 7.0 14.0 0.00 0.00 0.00 43 1011.0
20260508205038 59 5 6.0 15.0 0.00 0.00 0.00 42 1010.9
20260508204539 59 283 10.0 15.0 0.00 0.00 0.00 42 1011.0
20260508204037 59 344 4.0 15.0 0.00 0.00 0.00 43 1010.9
20260508203539 59 343 5.0 15.0 0.00 0.00 0.00 46 1011.0
20260508203039 59 348 5.0 13.0 0.00 0.00 0.00 45 1010.9
20260508202536 59 5 7.0 13.0 0.00 0.00 0.00 44 1010.9
20260508202039 59 327 5.0 12.0 0.00 0.00 0.00 46 1010.9
20260508201538 59 341 6.0 12.0 0.00 0.00 0.00 45 1010.9
20260508201035 60 336 5.0 11.0 0.00 0.00 0.00 46 1010.9
20260508200535 59 321 4.0 18.0 0.00 0.00 0.00 48 1010.9
20260508200043 58 325 8.0 18.0 0.00 0.00 0.00 47 1011.0
20260508195534 59 17 10.0 18.0 0.00 0.00 0.00 46 1011.1
20260508195034 58 348 8.0 18.0 0.00 0.00 0.00 47 1011.2
20260508194536 59 295 8.0 15.0 0.00 0.00 0.00 46 1011.1
20260508194033 59 14 6.0 13.0 0.00 0.00 0.00 48 1011.2
20260508193532 60 355 6.0 11.0 0.00 0.00 0.00 47 1011.2
20260508193032 59 345 3.0 12.0 0.00 0.00 0.00 49 1011.1
20260508192531 60 360 5.0 9.0 0.00 0.00 0.00 47 1011.2
20260508192030 59 331 4.0 9.0 0.00 0.00 0.00 50 1011.2
20260508191532 59 315 5.0 11.0 0.00 0.00 0.00 47 1011.3
20260508191029 58 342 6.0 13.0 0.00 0.00 0.00 49 1011.3
20260508190528 58 335 5.0 14.0 0.00 0.00 0.00 53 1011.3
20260508190029 58 349 6.0 14.0 0.00 0.00 0.00 52 1011.3
20260508185527 59 330 3.0 10.0 0.00 0.00 0.00 53 1011.3
20260508185029 58 348 2.0 11.0 0.00 0.00 0.00 53 1011.4
20260508184525 57 286 5.0 13.0 0.00 0.00 0.00 53 1011.4
20260508184024 56 347 2.0 13.0 0.00 0.00 0.00 56 1011.4
20260508183527 57 9 3.0 11.0 0.00 0.00 0.00 56 1011.4
20260508183025 57 348 4.0 11.0 0.00 0.00 0.00 56 1011.6
20260508182523 56 84 3.0 11.0 0.00 0.00 0.00 55 1011.5
20260508182022 56 69 1.0 9.0 0.00 0.00 0.00 56 1011.6
20260508181522 56 24 3.0 10.0 0.00 0.00 0.00 56 1011.6
20260508181021 56 360 4.0 13.0 0.00 0.00 0.00 55 1011.7
20260508180521 57 355 6.0 13.0 0.00 0.00 0.00 54 1011.7
20260508180021 56 32 3.0 5.0 0.00 0.00 0.00 57 1011.7
20260508175520 54 340 1.0 6.0 0.00 0.00 0.00 59 1011.7
20260508175022 54 341 3.0 9.0 0.00 0.00 0.00 57 1011.7
20260508174620 54 44 3.0 9.0 0.00 0.00 0.00 57 1011.6
20260508174019 54 351 2.0 9.0 0.00 0.00 0.00 56 1011.7
20260508173518 54 331 3.0 8.0 0.00 0.00 0.00 56 1011.5
20260508173020 55 336 1.0 11.0 0.00 0.00 0.00 57 1011.3
20260508172522 55 350 5.0 11.0 0.00 0.00 0.00 55 1011.2
20260508172018 55 301 2.0 10.0 0.00 0.00 0.00 55 1011.3
20260508171519 56 351 3.0 9.0 0.00 0.00 0.00 58 1011.3
20260508171017 54 242 3.0 9.0 0.00 0.00 0.00 58 1011.4
20260508170518 54 308 2.0 9.0 0.00 0.00 0.00 58 1011.4
20260508170017 53 328 2.0 5.0 0.00 0.00 0.00 58 1011.4
20260508165516 53 329 1.0 4.0 0.00 0.00 0.00 59 1011.5
20260508165017 52 331 2.0 4.0 0.00 0.00 0.00 59 1011.4
20260508164517 52 336 1.0 5.0 0.00 0.00 0.00 58 1011.5
20260508164016 52 336 2.0 6.0 0.00 0.00 0.00 59 1011.7
20260508163515 53 322 3.0 5.0 0.00 0.00 0.00 60 1011.7
20260508163022 52 328 2.0 6.0 0.00 0.00 0.00 63 1011.5
20260508162517 52 309 3.0 9.0 0.00 0.00 0.00 61 1011.8
20260508162018 52 335 4.0 9.0 0.00 0.00 0.00 60 1011.9
20260508161516 52 349 4.0 8.0 0.00 0.00 0.00 61 1011.7
20260508161015 52 335 3.0 11.0 0.00 0.00 0.00 61 1011.8
20260508160515 52 323 3.0 11.0 0.00 0.00 0.00 60 1011.6
20260508160014 52 355 4.0 11.0 0.00 0.00 0.00 58 1011.5
20260508155516 53 323 3.0 5.0 0.00 0.00 0.00 58 1011.7
20260508155014 53 229 1.0 9.0 0.00 0.00 0.00 56 1011.4
20260508154537 53 227 2.0 9.0 0.00 0.00 0.00 53 1011.3
20260508154015 54 323 2.0 8.0 0.00 0.00 0.00 53 1011.4
20260508153512 54 234 4.0 10.0 0.00 0.00 0.00 53 1011.3
20260508153013 55 22 2.0 10.0 0.00 0.00 0.00 52 1011.2
20260508152513 56 189 2.0 6.0 0.00 0.00 0.00 53 1011.1
20260508152011 55 166 3.0 8.0 0.00 0.00 0.00 52 1011.1
20260508151514 54 174 4.0 8.0 0.00 0.00 0.00 53 1011.1
20260508151015 55 241 1.0 7.0 0.00 0.00 0.00 56 1011.1
20260508150512 55 140 1.0 7.0 0.00 0.00 0.00 54 1011.1
20260508150010 55 204 3.0 7.0 0.00 0.00 0.00 56 1011.1
20260508145513 55 200 3.0 9.0 0.00 0.00 0.00 52 1011.1
20260508145010 55 302 4.0 9.0 0.00 0.00 0.00 51 1011.1
20260508144510 55 236 4.0 10.0 0.00 0.00 0.00 51 1011.2
20260508144013 55 226 5.0 10.0 0.00 0.00 0.00 51 1011.2
20260508143508 56 198 2.0 9.0 0.00 0.00 0.00 48 1011.3
20260508143008 55 325 2.0 11.0 0.00 0.00 0.00 51 1011.4
20260508142507 55 233 3.0 11.0 0.00 0.00 0.00 48 1011.3
20260508142007 55 281 2.0 7.0 0.00 0.00 0.00 54 1011.6
20260508141506 54 329 3.0 9.0 0.00 0.00 0.00 48 1011.4
20260508141006 54 323 3.0 10.0 0.00 0.00 0.00 50 1011.5
20260508140505 55 318 5.0 11.0 0.00 0.00 0.00 46 1011.5
20260508140005 54 303 2.0 9.0 0.00 0.00 0.00 50 1011.6
20260508135506 54 250 3.0 12.0 0.00 0.00 0.00 49 1011.6
20260508135004 54 288 5.0 12.0 0.00 0.00 0.00 48 1011.5
20260508134504 54 225 4.0 11.0 0.00 0.00 0.00 49 1011.6
20260508134002 53 296 1.0 9.0 0.00 0.00 0.00 51 1011.5
20260508133600 54 286 3.0 9.0 0.00 0.00 0.00 52 1011.6
20260508133102 53 271 3.0 9.0 0.00 0.00 0.00 53 1011.5
20260508132558 53 338 3.0 10.0 0.00 0.00 0.00 52 1011.7
20260508132059 52 288 4.0 11.0 0.00 0.00 0.00 52 1011.6
20260508131603 52 314 4.0 11.0 0.00 0.00 0.00 52 1011.7
20260508131058 53 323 2.0 9.0 0.00 0.00 0.00 55 1011.6
20260508130557 52 265 4.0 9.0 0.00 0.00 0.00 52 1011.6
20260508130054 52 344 2.0 8.0 0.00 0.00 0.00 59 1011.6
20260508125553 51 294 2.0 7.0 0.00 0.00 0.00 59 1011.7
20260508125051 50 348 2.0 7.0 0.00 0.00 0.00 62 1011.6
20260508124555 49 260 0.0 3.0 0.00 0.00 0.00 64 1011.7
20260508124050 49 258 1.0 3.0 0.00 0.00 0.00 68 1011.8
20260508123549 49 255 0.0 3.0 0.00 0.00 0.00 68 1011.8
20260508123052 48 248 2.0 4.0 0.00 0.00 0.00 68 1011.9
20260508122547 48 248 2.0 4.0 0.00 0.00 0.00 68 1012.0
20260508122047 48 248 0.0 4.0 0.00 0.00 0.00 70 1011.9
20260508121548 47 247 1.0 4.0 0.00 0.00 0.00 70 1012.0
20260508121047 47 269 1.0 6.0 0.00 0.00 0.00 72 1012.1
20260508120547 47 270 2.0 6.0 0.00 0.00 0.00 73 1012.0
20260508120047 47 250 1.0 7.0 0.00 0.00 0.00 72 1012.1
20260508115547 46 360 3.0 7.0 0.00 0.00 0.00 75 1012.1
20260508115048 46 211 4.0 7.0 0.00 0.00 0.00 75 1012.0
20260508114547 46 273 4.0 9.0 0.00 0.00 0.00 75 1012.0
20260508114146 45 208 4.0 9.0 0.00 0.00 0.00 75 1012.1
20260508113544 45 192 3.0 9.0 0.00 0.00 0.00 76 1011.9
20260508113045 45 190 4.0 7.0 0.00 0.00 0.00 77 1011.8
20260508112543 44 226 3.0 6.0 0.00 0.00 0.00 78 1011.9
20260508112044 44 242 1.0 5.0 0.00 0.00 0.00 79 1011.8
20260508111542 43 205 1.0 4.0 0.00 0.00 0.00 79 1011.7
20260508111042 43 360 2.0 5.0 0.00 0.00 0.00 79 1011.7
20260508110541 43 360 2.0 10.0 0.00 0.00 0.00 78 1011.6
20260508110041 43 360 2.0 10.0 0.00 0.00 0.00 78 1011.7
20260508105541 43 360 3.0 8.0 0.00 0.00 0.00 78 1011.7
20260508105041 44 360 2.0 9.0 0.00 0.00 0.00 77 1011.7
20260508104541 44 360 3.0 9.0 0.00 0.00 0.00 77 1011.8
20260508104039 44 360 2.0 6.0 0.00 0.00 0.00 76 1011.6
20260508103539 44 360 1.0 6.0 0.00 0.00 0.00 76 1011.6
20260508103039 44 360 1.0 8.0 0.00 0.00 0.00 76 1011.6
20260508102537 44 360 4.0 8.0 0.00 0.00 0.00 76 1011.5
20260508102040 44 360 2.0 6.0 0.00 0.00 0.00 76 1011.5
20260508101536 44 360 2.0 5.0 0.00 0.00 0.00 76 1011.5
20260508101036 44 360 2.0 9.0 0.00 0.00 0.00 75 1011.4
20260508100534 43 360 3.0 9.0 0.00 0.00 0.00 75 1011.2
20260508100034 43 360 3.0 9.0 0.00 0.00 0.00 75 1011.2
20260508095533 43 360 1.0 8.0 0.00 0.00 0.00 75 1011.1
20260508095033 43 360 2.0 6.0 0.00 0.00 0.00 75 1011.1
20260508094531 43 360 2.0 6.0 0.00 0.00 0.00 75 1011.1
20260508094031 43 360 3.0 6.0 0.00 0.00 0.00 75 1010.9
20260508093531 43 360 2.0 6.0 0.00 0.00 0.00 75 1010.9
20260508093031 43 244 2.0 7.0 0.00 0.00 0.00 76 1010.9
20260508092529 43 360 2.0 5.0 0.00 0.00 0.00 77 1010.9
20260508092029 42 360 1.0 5.0 0.00 0.00 0.00 78 1010.9
20260508091528 42 360 2.0 5.0 0.00 0.00 0.00 78 1010.9
20260508091028 43 360 2.0 6.0 0.00 0.00 0.00 78 1011.0
20260508090528 42 360 2.0 6.0 0.00 0.00 0.00 79 1010.9
20260508090044 42 360 2.0 5.0 0.00 0.00 0.00 78 1010.8
20260508085528 42 360 1.0 3.0 0.00 0.00 0.00 79 1010.6
20260508085025 42 360 1.0 3.0 0.00 0.00 0.00 78 1010.7
20260508084524 43 360 0.0 3.0 0.00 0.00 0.00 77 1010.7
20260508084023 43 360 1.0 4.0 0.00 0.00 0.00 77 1010.7
20260508083524 44 360 1.0 5.0 0.00 0.00 0.00 77 1010.7
20260508083022 44 360 2.0 6.0 0.00 0.00 0.00 76 1010.8
20260508082520 44 360 3.0 5.0 0.00 0.00 0.00 76 1010.7
20260508082019 44 360 1.0 5.0 0.00 0.00 0.00 75 1010.7
20260508081519 45 360 2.0 5.0 0.00 0.00 0.00 74 1010.6
20260508081017 45 360 2.0 5.0 0.00 0.00 0.00 74 1010.6
20260508080522 45 360 2.0 5.0 0.00 0.00 0.00 74 1010.7
20260508080020 45 360 2.0 6.0 0.00 0.00 0.00 73 1010.6
20260508075515 45 360 2.0 8.0 0.00 0.00 0.00 73 1010.5
20260508075014 46 360 3.0 8.0 0.00 0.00 0.00 73 1010.6
20260508074515 46 360 2.0 8.0 0.00 0.00 0.00 73 1010.5
20260508074012 46 360 2.0 5.0 0.00 0.00 0.00 73 1010.5
20260508073512 46 360 1.0 4.0 0.00 0.00 0.00 74 1010.3
20260508073013 46 360 2.0 6.0 0.00 0.00 0.00 73 1010.4
20260508072510 46 360 2.0 6.0 0.00 0.00 0.00 73 1010.5
20260508072010 46 360 3.0 6.0 0.00 0.00 0.00 73 1010.4
20260508071509 46 360 2.0 6.0 0.00 0.00 0.00 73 1010.3
20260508071008 46 360 2.0 6.0 0.00 0.00 0.00 72 1010.4
20260508070510 46 360 2.0 6.0 0.00 0.00 0.00 72 1010.5
20260508070008 46 360 2.0 5.0 0.00 0.00 0.00 72 1010.5
20260508065506 46 360 2.0 6.0 0.00 0.00 0.00 73 1010.5
20260508065011 46 360 3.0 6.0 0.00 0.00 0.00 72 1010.7
20260508064509 46 360 1.0 4.0 0.00 0.00 0.00 71 1010.6
20260508064006 46 360 2.0 4.0 0.00 0.00 0.00 71 1010.5
20260508063506 46 360 3.0 4.0 0.00 0.00 0.00 70 1010.6
20260508063009 46 360 1.0 5.0 0.00 0.00 0.00 70 1010.7
20260508062504 46 360 2.0 5.0 0.00 0.00 0.00 69 1010.6
20260508062004 46 360 2.0 6.0 0.00 0.00 0.00 70 1010.7
20260508061504 46 360 2.0 6.0 0.00 0.00 0.00 70 1010.5
20260508061006 46 360 2.0 4.0 0.00 0.00 0.00 69 1010.6
20260508060503 46 360 2.0 4.0 0.00 0.00 0.00 68 1010.5
20260508060004 46 360 2.0 3.0 0.00 0.00 0.00 69 1010.6
20260508055504 46 360 1.0 3.0 0.00 0.00 0.00 70 1010.7
20260508055005 46 360 1.0 4.0 0.00 0.00 0.00 69 1010.7
20260508054503 46 360 2.0 4.0 0.00 0.00 0.00 69 1010.6
20260508054006 46 360 2.0 4.0 0.00 0.00 0.00 69 1010.4
20260508053600 46 360 1.0 3.0 0.00 0.00 0.00 71 1010.3
20260508053101 46 360 0.0 2.0 0.00 0.00 0.00 71 1010.1
20260508052559 46 360 0.0 2.0 0.00 0.00 0.00 71 1009.7
20260508052057 46 360 0.0 2.0 0.00 0.00 0.00 71 1009.6
20260508051611 47 360 0.0 2.0 0.00 0.00 0.00 67 1009.5
20260508051056 47 360 0.0 1.0 0.00 0.00 0.00 68 1009.5
20260508050558 47 360 0.0 2.0 0.00 0.00 0.00 67 1009.6
20260508050055 48 360 0.0 3.0 0.00 0.00 0.00 65 1009.9
20260508045553 48 360 1.0 3.0 0.00 0.00 0.00 64 1009.9
20260508045053 48 360 1.0 2.0 0.00 0.00 0.00 65 1009.9
20260508044553 48 360 1.0 2.0 0.00 0.00 0.00 66 1010.0
20260508044051 47 360 0.0 2.0 0.00 0.00 0.00 65 1010.0
20260508043553 47 360 0.0 1.0 0.00 0.00 0.00 65 1010.0
20260508043051 48 360 0.0 2.0 0.00 0.00 0.00 67 1009.8
20260508042550 48 360 0.0 2.0 0.00 0.00 0.00 67 1010.0
20260508042050 48 360 0.0 2.0 0.00 0.00 0.00 68 1009.9
20260508041548 47 360 0.0 2.0 0.00 0.00 0.00 68 1010.0
20260508041048 47 360 0.0 1.0 0.00 0.00 0.00 69 1009.9
20260508040547 47 360 0.0 1.0 0.00 0.00 0.00 68 1010.0
20260508040052 47 360 0.0 0.0 0.00 0.00 0.00 69 1009.9
20260508035546 47 360 0.0 2.0 0.00 0.00 0.00 71 1009.8
20260508035046 47 360 0.0 2.0 0.00 0.00 0.00 71 1009.8
20260508034550 47 360 0.0 0.0 0.00 0.00 0.00 70 1009.8
20260508034045 47 360 0.0 0.0 0.00 0.00 0.00 69 1009.9
20260508033544 48 360 0.0 0.0 0.00 0.00 0.00 69 1009.9
20260508033051 48 360 0.0 0.0 0.00 0.00 0.00 68 1010.0
20260508032544 48 360 0.0 0.0 0.00 0.00 0.00 67 1010.1
20260508032045 47 360 0.0 0.0 0.00 0.00 0.00 68 1010.0
20260508031554 47 360 0.0 0.0 0.00 0.00 0.00 67 1009.9
20260508031044 48 360 0.0 0.0 0.00 0.00 0.00 67 1009.9
20260508030544 48 360 0.0 2.0 0.00 0.00 0.00 66 1009.9
20260508030047 47 360 0.0 3.0 0.00 0.00 0.00 65 1010.0
20260508025547 47 360 1.0 3.0 0.00 0.00 0.00 66 1010.1
20260508025043 47 360 1.0 2.0 0.00 0.00 0.00 65 1010.0
20260508024611 47 360 0.0 0.0 0.00 0.00 0.00 63 1010.1
20260508024044 47 360 0.0 0.0 0.00 0.00 0.00 62 1010.1
20260508023543 47 360 0.0 0.0 0.00 0.00 0.00 62 1010.0
20260508023042 47 360 0.0 0.0 0.00 0.00 0.00 65 1010.0
20260508022543 47 360 0.0 0.0 0.00 0.00 0.00 63 1010.1
20260508022042 47 360 0.0 0.0 0.00 0.00 0.00 62 1010.0